Location: Central Falls
(41.8900°N, 71.3929°W)
Time: 15:11:04
(UTC+00:00)

SR - Pass Details

Date: 11 December 2023
Orbit: 574 x 867 km, 66.7° (Epoch: 28 February)

Event Time Altitude Azimuth Distance (km) Brightness Sun altitude
Rises 00:27:48 0° 322° (NW) 3,430 ? -35.1°
Reaches altitude 10° 00:30:29 10° 315° (NW) 2,465 ? -35.6°
Enters shadow 00:34:28 33° 278° (W) 1,335 ? -36.3°
